Regional Weather Roundup
Issued by NWS

Home | Current Version | Previous Version | Graphics & Text | Print | Product List | Glossary Off
Versions: 1 2 3 4 5 6 7 8 9 10 11 12 13 14 15 16 17 18 19 20 21 22 23 24 25 26 27 28 29 30 31 32 33 34 35 36 37 38 39 40 41 42 43 44 45 46 47 48 49 50

000
ASUS43 KLSX 220159
RWRMO

WEATHER SUMMARY FOR MISSOURI
NATIONAL WEATHER SERVICE SPRINGFIELD MO
900 PM CDT THU AUG 21 2014

NOTE: "FAIR" INDICATES FEW OR NO CLOUDS BELOW 12,000 FEET WITH NO
       SIGNIFICANT WEATHER AND/OR OBSTRUCTIONS TO VISIBILITY.
       CURRENT SKY AND/OR WEATHER CONDITIONS ARE NOT AVAILABLE FOR
       CHILLICOTHE AND FARMINGTON.

MOZ001>031-035>038-043-044-053-054-220300-
...NORTHERN AND WESTERN MISSOURI...

CITY           SKY/WX    TMP DP  RH WIND       PRES   REMARKS
KANSAS CTY INT PTCLDY    85  72  65 S9        29.87R HX  91
KANSAS C DTWN  CLEAR     91  71  51 S12       29.86R HX  97
LEE`S SUMMIT   CLEAR     87  71  58 S10       29.90R HX  93
ST JOSEPH      CLEAR     82  76  81 S6        29.84R
KIRKSVILLE     PTCLDY    78  75  90 S6        29.90R

$$
MOZ066>068-077>081-088>096-101>105-220300-
...SOUTHWEST MISSOURI...

CITY           SKY/WX    TMP DP  RH WIND       PRES   REMARKS
SPRINGFIELD    CLEAR     84  66  54 SW12      29.98R
JOPLIN         CLEAR     85  70  60 S13       29.96S

$$
MOZ032>034-039>042-045>050-055>058-069>072-220300-
...CENTRAL MISSOURI...

CITY           SKY/WX    TMP DP  RH WIND       PRES   REMARKS
COLUMBIA       MOCLDY    85  73  67 SE7       29.92R HX  91
JEFFERSON CITY PTCLDY    82  76  81 SE5       29.90R
ROLLA          CLEAR     83  69  62 S9        29.94R
SEDALIA        PTCLDY    85  73  67 S5        29.91R HX  91
OSAGE BEACH    CLEAR     82  70  65 S3        29.92R

$$
MOZ051-052-059>065-220300-
...EAST CENTRAL MISSOURI...

CITY           SKY/WX    TMP DP  RH WIND       PRES   REMARKS
ST LOUIS INTL  MOCLDY    90  72  55 S9        29.93R HX  97
SPIRIT OF STL  PTCLDY    81  76  84 CALM      29.91R
ST CHARLES     CLEAR     80  77  90 E3        29.91R

$$
MOZ072>076-082>087-097>100-106>115-220300-
...SOUTH CENTRAL AND SOUTHEAST MISSOURI...

CITY           SKY/WX    TMP DP  RH WIND       PRES   REMARKS
CAPE GIRARDEAU CLOUDY    83  74  74 S9        29.98R
FARMINGTON     PTCLDY    84  73  70 S12       30.00R HX  91
POPLAR BLUFF   MOCLDY    83  72  69 S7        29.98R
WEST PLAINS    CLEAR     84  65  52 SW8       30.03R

$$


USA.gov is the U.S. government's official web portal to all federal, state and local government web resources and services.